Zurück zum Katalog

STARLINK-30898

AktivKommunikationVLEO
NORAD 58387·PAYLOAD·🇺🇸 United States

Gestartet Nov 20, 2023 von Vandenberg Space Force Base

Loading…

Nächste Überflüge (nächste 24 Stunden)

TLE

AktuellSource: CelesTrak SupGP

Epoche: Sep 14, 2026, 22:40 UTC

1 58387C 23178P   26257.94493056 -.00007459  00000+0 -22030-3 0  2577
2 58387  53.1590 198.0228 0001448 100.3294 185.9660 15.34406181    11

Verfolge STARLINK-30898 in Echtzeit mit AllMySat

Download on the App Store